Showing default

YUNHAI 2-1D, 43912

Orbit data source: Space-Track

YUNHAI 2-1D, 43912 is a payload satellite owned by CASC (CN) in LEO that was launched on Sat, 29 Dec 2018 UTC via a CHANG ZHENG 2D/YZ-3 launch vehicle from the Jiuquan Satellite Launch Center, China (JSC). Payload-class satellites include a variety of spacecraft equipped with specific instruments for various scientific and technological missions. These include communications satellites like Starlink; space stations such as the ISS; scientific satellites like the Hubble; Earth observation satellites from companies like Planet Labs, Umbra, and HawkEye 360; GPS; miniature CubeSats for education and research; and military/defense satellites.

Loading next visibility...
Identifier
43912, 2018-112D
Orbit
LEO
Country
Flag of CNCN / PRC
Related business
Manufacturer
DFH Shenzhen
Mission
Operational Defense Meteo Radio Occ.
Bus & Motor
YH-2, Unknown motor
Mass
~100 kg wet, ~100 kg dry
Launch date (UTC)
2018-12-29 (7 years ago)
Launch vehicle
CHANG ZHENG 2D/YZ-3
Launch site
Jiuquan Satellite Launch Center, China (JSC)
Object type
Payload
Rocket body
Debris
Shape & HBR
Box + 2 Pan, 0.5 m
Radar Cross Section
0.166 m², Large (>1 m²)

Expand to show TLE details & history
Last TLE update: 1 day ago

TLE from 1 day ago
0 YUNHAI 2-1D
1 43912U 18112D   26172.53018352  .00000002  00000-0  64066-4 0  9995
2 43912  50.0106 268.9970 0015246   0.3903 359.7022 14.29032991388206
Epoch: 2026-06-21T12:43Z
TLE epoch observation values (Epoch: 2026-06-21T12:43:27.856Z)
Latitude
0.00001°
Longitude
168.40181°
Altitude
784.561 km
Speed
7.468 km/s
True Right ascension
17h 55m 59s
True Declination
0° 00' 00"
Sunlit
Object was in full shadow at epoch
Visualization orbit readout
Latitude
Unknown
Longitude
Unknown
Altitude
Unknown
Speed
Unknown
Apparent Right ascension
Unknown
Apparent Declination
Unknown
Sunlit
N/A
Visualization observer readout
Local Sidereal Time
00:50:51
Azimuth
Unknown
Elevation
Unknown
Doppler factor
Unknown
Orbital elements
Apogee altitude
806.64 km
Perigee altitude
784.766 km
Semi-major axis
7,173.84 km
Eccentricity
0.00152
Inclination
50.0106°
RAAN
268.997°
Arg. of periapsis
0.3903°
True anomaly
359.70129°
Mean anomaly
359.7022°
Eccentric anomaly
359.70175°
Mean motion
3.57203 °/min
Orbital period
100.78 mins
BSTAR
0.000064066
Loading maneuver chart data...
Computing Atmospheric mass density...
Loading historical data...
Loading historical data...
Loading historical data...
Loading historical data...
Loading historical data...
Loading historical data...
Loading historical data...

Documentation

Showing up to 5 results
|